Flag for United Kingdom Weather past 2 weeks in Perth, Scotland, United Kingdom

Now
54 °F

Cool.


Feels Like: 53 °F
Forecast: 39 / 58 °F
Wind: 5 mph from Southwest

Location: Strathallan

Current Time: Aug 23, 2014 at 11:05:46 AM

Latest Report: Aug 23, 2014 at 10:00 AM


Visibility: 28 mi

Pressure: 29.94 "Hg

Humidity: 75%

Dew point: 46 °F

Location of PerthLocation

Historic Weather in Perth — Graph

°F

Perth temperature yesterday

Maximum temperature yesterday: 61 °F (at 4:00 PM)
Minimum temperature yesterday: 41 °F (at 6:00 AM)
Average temperature yesterday: 52 °F

Past Weeks' High & Low Weather Summary

 TemperatureHumidityPressure
High68 °F (Aug 9, 3:00 PM)98% (Aug 9, 2:00 AM)30.06 "Hg (Aug 9, 2:00 AM)
Low39 °F (Aug 20, 4:00 AM)50% (Aug 19, 12:00 PM)29.18 "Hg (Aug 11, 2:00 AM)
Average55 °F78%29.67 "Hg
* Reported Aug 8 9:00 AM — Aug 23 9:00 AM, Perth, Weather by CustomWeather, © 2014

Note: Actual official high and low records may vary slightly from our data, if they occured in-between our weather recording intervals... More about our weather records

Advertising

Perth weather history for previous 24 hours

 ConditionsComfort  
Time TempWeatherWind HumidityBarometerVisibility
9:00 AM
Aug 23
52 °FCool.3 mph87%29.93 "Hg31 mi
8:00 AM49 °FCool.1 mph95%29.92 "Hg31 mi
7:00 AM48 °FCool.1 mph96%29.91 "Hg31 mi
6:00 AM47 °FCool.1 mph96%29.90 "Hg31 mi
5:00 AM48 °FCool.1 mph95%29.90 "Hg31 mi
4:00 AM47 °FLots of rain. Overcast.1 mph95%29.90 "Hg7 mi
3:00 AM47 °FCool.2 mph93%29.89 "Hg31 mi
2:00 AM47 °FCool.3 mph92%29.89 "Hg31 mi
1:00 AM47 °FCool.1 mph93%29.89 "Hg31 mi
12:00 AM48 °FCool.3 mph90%29.88 "Hg31 mi
10:00 PM
Aug 22
49 °FCool.1 mph89%29.87 "Hg31 mi
9:00 PM52 °FCool.3 mph78%29.86 "Hg31 mi
8:00 PM57 °FCool.5 mph62%29.85 "Hg31 mi
7:00 PM58 °FRefreshingly cool.8 mph59%29.83 "Hg28 mi
6:00 PM58 °FCool.12 mph62%29.83 "Hg31 mi
5:00 PM60 °FRefreshingly cool.7 mph60%29.82 "Hg22 mi
4:00 PM61 °FRain showers. Cloudy.2 mph54%29.83 "Hg25 mi
3:00 PM59 °FCool.7 mph60%29.83 "Hg31 mi
2:00 PM56 °FRain showers. Cloudy.13 mph68%29.84 "Hg7 mi
1:00 PM58 °FRefreshingly cool.9 mph59%29.83 "Hg25 mi
12:00 PM57 °FRefreshingly cool.5 mph58%29.83 "Hg31 mi
11:00 AM55 °FCool.7 mph64%29.82 "Hg28 mi
Weather by CustomWeather, © 2014

See weather overviewHow to use our weather pages